Theta_e
313 315 315 316 316 314 315 314 314 312 312 312 311 312 312 312 314 313 314 313 314 314 314 315 316 316 316 316 316 315 315 316 315 316 316 316 316 314 312 313 314 313 312
314 315 315 315 315 315 315 314 314 312 311 312 311 312 312 314 314 314 314 313 313 313 313 314 316 315 316 316 316 316 316 316 317 316 314 313 315 315 315 315 315 315 315
314 315 315 314 315 313 314 314 313 312 313 312 311 310 311 313 313 314 314 314 315 314 314 313 315 315 315 315 316 316 316 315 316 315 316 314 315 316 316 316 315 315 315
315 315 316 315 314 313 313 314 314 314 313 313 310 313 313 310 312 314 314 313 314 313 313 313 315 312 314 314 315 314 316 316 316 315 314 315 316 316 317 315 315 315 315
314 315 315 314 314 314 314 315 315 315 315 313 312 312 309 309 312 313 315 316 315 312 313 311 312 315 315 313 312 312 314 314 317 316 315 315 316 315 316 316 316 315 314
314 315 315 315 314 313 312 314 315 314 313 314 314 313 308 308 309 310 314 315 315 315 314 313 315 314 314 314 313 314 315 312 314 316 317 316 317 317 316 314 314 314 314
314 315 315 314 313 314 312 313 315 315 314 314 313 313 309 308 308 310 313 314 315 315 315 314 315 314 310 308 312 314 314 314 313 313 313 316 316 314 310 308 308 311 312
315 315 316 314 313 313 314 313 315 315 316 314 315 313 314 311 308 308 308 311 313 313 314 315 313 313 313 309 311 313 315 314 314 314 312 311 308 307 307 306 308 311 311
314 315 316 313 314 315 315 315 314 314 314 315 314 314 312 313 313 309 308 308 311 313 314 315 315 314 309 308 311 312 312 312 311 311 311 311 311 311 307 305 309 308 307
314 315 316 314 313 314 316 316 316 316 314 315 314 314 313 313 312 313 310 308 309 308 314 313 311 308 307 307 306 308 306 305 304 305 309 310 311 313 311 308 309 307 307
316 315 316 315 314 314 314 315 316 316 315 314 314 313 313 313 313 313 312 308 308 308 314 308 307 306 306 306 306 306 305 303 306 308 309 311 312 313 313 310 310 309 306
315 314 315 315 315 314 314 314 314 315 316 316 316 316 314 311 313 314 313 308 307 307 307 314 310 309 307 306 307 308 306 305 307 308 307 310 312 312 313 311 310 308 307
314 316 316 315 316 315 316 313 314 315 314 315 316 316 316 314 311 313 314 307 306 305 305 307 311 308 307 308 308 309 308 307 309 308 306 308 307 309 308 309 309 309 308
314 315 316 315 315 316 316 315 314 316 313 315 315 313 312 313 312 313 315 307 307 308 307 307 310 312 312 312 311 310 309 308 308 308 307 307 306 307 307 309 310 307 307
316 314 315 315 315 316 316 316 314 315 316 313 313 313 310 310 311 314 310 307 308 307 308 307 306 306 308 308 309 311 312 310 310 309 306 305 305 306 307 307 306 306 307
315 315 314 315 315 317 317 315 315 316 316 314 313 312 311 309 308 308 307 305 303 303 302 302 302 303 304 305 306 313 314 312 310 306 304 304 305 307 307 306 306 306 307
310 314 315 315 315 315 316 316 315 316 315 315 314 314 313 311 309 307 305 304 303 303 303 303 303 304 305 307 308 310 308 306 305 304 304 304 305 306 306 306 306 306 304
309 310 313 313 314 315 315 315 316 314 314 314 314 314 315 313 310 308 306 304 303 302 302 303 304 305 306 307 309 308 306 305 304 303 303 303 304 306 306 305 305 306 304
312 312 311 311 311 311 315 315 315 315 314 314 315 314 314 314 311 308 307 305 304 303 303 305 307 308 309 308 308 307 306 305 305 303 302 303 303 305 305 305 305 305 304
307 307 309 310 309 310 313 315 315 315 314 314 313 313 314 312 310 308 308 307 306 306 304 304 306 309 309 307 307 306 306 305 303 303 302 303 304 303 304 305 304 303 304
307 307 308 308 308 309 311 313 314 314 314 313 313 314 313 314 313 312 309 308 307 307 306 307 309 308 307 307 307 306 305 304 303 303 303 303 302 302 304 303 303 303 303
304 305 307 308 310 310 311 312 312 313 314 315 314 314 314 313 313 312 310 311 312 311 309 308 309 308 307 306 305 306 305 303 302 302 301 301 301 300 301 303 303 302 302
303 304 306 309 309 308 309 311 312 312 312 312 314 314 313 314 313 313 311 313 313 312 311 310 309 308 307 306 305 304 303 303 302 301 300 300 300 300 300 300 301 301 302
304 305 307 308 309 308 309 309 308 311 312 312 312 314 314 314 313 312 313 313 313 313 313 311 311 309 308 308 306 305 304 304 302 302 301 300 298 299 299 299 301 301 302
306 306 307 305 304 304 304 304 305 306 307 312 313 313 313 313 314 314 312 313 313 313 314 313 313 311 309 309 307 306 305 304 303 302 301 298 297 297 297 298 299 300 301
306 304 303 301 301 301 302 302 302 303 306 309 311 310 310 312 313 314 314 314 313 313 313 313 313 312 312 310 309 309 307 306 304 302 300 299 297 295 296 297 298 299 300
Wind_Speed
9 9 12 12 11 8 8 9 9 10 5 9 8 10 14 14 12 11 10 12 13 10 10 13 8 12 13 5 5 7 8 11 14 14 19 17 15 13 9 10 8 8 8
10 12 10 11 8 8 7 9 8 12 10 9 7 9 10 11 13 12 11 10 11 11 11 15 17 16 19 19 17 14 9 10 19 16 14 14 15 12 10 10 11 12 14
9 9 8 8 5 9 5 7 8 11 5 8 5 4 7 7 8 9 10 7 9 11 11 11 14 14 15 15 15 16 14 13 18 15 7 9 8 8 9 9 9 9 12
8 8 5 6 5 3 7 5 6 7 8 8 4 6 6 5 5 11 12 7 7 10 10 10 11 14 13 12 12 12 13 13 10 8 3 6 7 8 8 4 7 8 14
8 9 7 7 5 2 5 6 6 7 6 6 6 7 6 7 6 7 10 12 10 8 8 12 13 13 12 13 13 13 10 10 11 9 10 9 7 6 1 1 1 4 7
8 11 9 10 10 6 6 4 2 6 3 5 2 2 6 6 5 6 6 7 8 4 4 8 9 8 8 8 8 8 7 7 9 8 6 6 5 3 2 1 3 3 3
12 11 9 3 6 5 8 6 2 5 4 1 2 1 5 5 5 6 6 4 6 1 2 5 5 3 6 6 5 8 5 2 3 6 4 3 4 2 3 4 4 6 9
13 13 12 8 7 4 4 3 2 4 4 4 3 3 1 2 3 4 6 6 6 10 4 1 1 0 2 3 4 8 5 5 5 2 2 3 3 4 5 5 6 7 9
13 14 10 7 5 6 5 7 5 4 5 7 8 7 6 5 4 6 6 8 11 8 5 8 7 3 2 2 2 3 3 3 4 3 5 6 7 5 2 1 3 6 5
13 14 12 11 9 9 5 7 8 6 7 9 9 12 8 9 6 7 7 7 8 10 6 7 5 0 1 2 4 4 5 5 5 7 9 10 12 12 6 3 0 4 3
13 13 12 12 14 11 13 7 9 8 8 12 13 13 11 14 12 10 9 9 8 6 2 3 3 0 3 5 5 4 6 7 5 9 14 15 10 10 12 9 7 6 3
14 14 14 11 15 12 12 12 9 12 13 15 17 19 20 18 17 16 12 10 9 8 4 5 7 7 8 7 7 7 6 6 7 10 10 10 3 7 9 12 12 7 6
16 16 15 14 13 14 16 14 15 16 14 16 18 20 20 23 20 20 16 9 9 11 9 7 10 16 14 13 11 10 8 9 7 7 7 9 8 3 4 10 11 8 11
17 16 16 16 17 17 16 16 15 18 14 16 12 11 3 14 15 21 19 13 9 10 12 10 11 11 14 16 16 16 14 16 13 11 4 7 9 10 12 10 9 8 7
20 16 16 17 18 19 19 18 17 20 20 15 19 12 5 2 9 19 18 13 12 10 9 12 13 15 19 19 24 25 21 21 18 15 5 5 8 12 5 3 2 7 8
18 21 17 17 19 18 16 18 17 17 20 19 16 15 13 11 9 12 14 13 12 10 10 12 14 16 19 21 24 21 16 18 12 8 4 3 9 7 6 6 9 13 16
23 21 15 13 18 20 21 18 18 22 18 14 18 21 21 20 17 15 13 11 11 12 13 16 17 17 18 21 22 9 8 10 6 1 2 3 6 6 5 7 10 14 7
15 21 17 19 18 18 20 22 19 23 18 21 18 18 20 26 23 19 16 15 16 16 18 21 21 21 20 21 22 10 13 10 5 2 2 5 6 8 6 8 12 3 5
16 15 18 17 19 25 22 20 14 17 20 26 22 13 18 21 22 20 20 22 23 21 19 20 22 25 22 16 9 8 7 4 3 5 6 7 7 6 5 9 12 5 5
18 17 16 16 17 22 22 19 16 25 22 19 14 16 20 13 17 23 25 27 26 27 25 24 23 22 15 6 7 9 8 6 4 8 10 9 9 8 10 11 11 3 3
24 28 23 14 10 15 18 15 15 18 15 19 17 15 17 20 19 27 31 28 28 29 28 24 18 13 8 9 15 15 12 8 10 11 10 9 6 9 10 10 10 5 5
26 26 28 16 14 13 17 17 16 18 15 17 22 19 17 24 21 24 25 23 28 30 27 25 20 13 9 11 13 17 12 10 8 7 7 6 5 5 8 4 3 2 2
28 25 22 16 11 15 19 19 18 19 17 21 20 20 17 19 22 30 24 15 9 14 22 22 22 15 13 10 10 14 14 10 7 9 9 7 7 7 5 6 6 6 5
24 24 21 18 15 17 17 18 20 18 18 17 17 21 18 22 22 20 18 16 21 20 14 12 20 19 18 16 15 15 13 10 13 14 14 11 11 11 9 6 5 6 8
19 20 16 20 20 21 22 21 20 21 21 19 15 17 25 19 18 19 22 22 21 20 14 3 6 22 22 19 19 16 14 14 18 18 15 12 11 12 12 9 10 11 10
15 18 20 21 22 22 20 22 24 22 22 22 22 21 21 21 13 13 11 9 16 23 14 13 14 10 8 24 21 21 20 18 16 17 16 12 10 11 11 10 11 11 11
Wind_Direction
1 9 357 9 10 15 10 5 16 14 3 2 19 15 15 6 7 35 40 30 28 50 47 56 52 47 88 79 176 116 95 113 122 134 136 156 165 162 167 188 210 232 232
1 3 13 11 21 26 28 30 36 30 21 26 18 4 14 36 32 36 36 50 45 57 48 55 65 66 71 81 96 101 104 150 144 141 153 158 170 182 191 198 232 246 255
349 359 5 11 6 28 31 37 40 31 25 2 8 351 14 14 21 43 19 27 53 55 67 63 67 70 65 58 74 72 71 118 160 163 158 165 176 188 206 230 240 240 245
339 346 334 352 329 1 358 4 349 351 23 21 81 13 6 351 31 42 34 48 73 60 71 81 88 78 78 76 75 74 73 78 76 107 109 182 191 202 213 263 269 263 259
302 311 308 320 315 333 354 327 353 358 351 348 43 68 30 62 69 49 43 55 90 85 68 81 86 69 60 66 71 71 84 81 91 93 68 108 95 128 132 358 171 302 266
297 307 312 302 295 303 332 348 7 348 355 342 275 103 59 59 52 38 36 61 49 90 94 110 86 67 66 56 57 44 45 90 95 112 101 107 123 155 188 314 319 306 319
293 316 327 330 324 351 299 314 315 355 355 290 71 360 63 57 51 47 44 21 7 360 88 110 114 95 43 37 55 25 39 174 130 132 139 155 160 182 261 292 310 312 296
283 300 298 268 315 342 20 10 319 321 327 250 228 228 304 35 18 3 6 0 341 331 319 223 267 145 1 360 31 41 62 43 223 226 257 252 251 269 267 291 330 341 10
292 289 293 255 298 307 294 335 296 288 283 288 256 252 270 268 293 315 333 355 1 10 279 254 239 226 319 18 7 7 73 48 5 215 293 279 273 283 305 260 34 5 18
280 277 282 245 274 303 287 302 322 291 289 302 264 258 248 247 271 277 298 323 340 8 19 148 163 160 314 310 321 318 325 328 326 263 275 278 282 272 247 213 34 353 347
281 275 277 276 271 280 307 280 291 306 284 284 281 272 262 252 251 259 274 275 291 339 32 161 157 345 277 289 307 289 319 316 325 324 329 326 296 269 238 210 226 243 276
267 275 273 283 264 275 275 290 300 290 275 282 280 277 263 253 248 248 259 262 263 274 278 246 254 287 282 284 285 288 301 292 324 341 348 8 125 157 185 210 221 252 279
263 269 267 270 273 271 274 278 295 288 279 293 297 285 278 252 239 240 242 252 260 262 269 262 251 279 284 281 278 280 267 264 281 298 316 348 354 317 275 231 228 253 279
257 261 269 265 266 269 267 277 284 280 285 316 330 310 293 239 216 219 225 227 247 261 257 266 278 287 282 279 278 271 264 261 263 264 280 303 310 322 312 296 247 239 257
257 265 266 267 267 270 260 265 264 277 283 280 288 290 303 224 217 220 215 219 227 248 248 263 280 280 282 290 290 277 265 261 255 261 226 299 298 315 342 103 268 275 303
322 284 282 273 275 275 257 266 268 277 279 267 272 281 270 269 230 199 213 234 248 252 260 266 273 278 279 282 293 280 250 253 217 193 291 278 310 302 315 315 316 316 302
4 346 326 305 290 285 278 261 254 273 266 287 273 280 267 260 250 251 253 253 258 258 261 267 273 278 279 287 299 199 172 153 153 166 301 293 312 311 319 324 316 324 148
333 322 322 341 333 321 297 286 278 267 278 279 279 301 267 252 244 246 246 251 253 260 263 268 271 275 277 282 285 163 147 153 170 208 258 277 282 305 297 306 310 270 199
333 328 332 309 320 337 316 298 286 278 283 289 285 285 308 265 235 239 246 250 258 262 265 266 272 281 275 280 182 184 184 191 292 302 285 293 253 294 305 305 315 292 231
351 346 326 332 331 331 321 306 294 270 263 260 287 304 314 242 229 234 245 250 252 260 263 259 259 278 251 224 207 196 205 227 255 250 254 262 267 274 276 282 305 270 312
339 333 327 316 322 327 305 320 318 310 282 271 283 287 298 238 236 246 245 253 253 254 256 255 256 235 232 252 245 225 220 237 245 241 242 241 266 288 270 270 282 254 301
338 331 320 301 313 328 314 313 321 296 324 293 296 300 302 240 252 253 245 257 265 255 250 248 250 226 249 253 272 221 219 202 212 231 229 220 244 300 330 309 248 233 339
335 328 325 325 324 339 340 329 311 312 303 303 300 282 287 283 268 256 254 289 266 266 246 244 226 224 222 236 223 210 210 223 230 204 207 233 261 272 306 298 292 278 297
338 331 339 344 352 348 341 344 338 323 302 296 298 288 283 290 288 253 260 273 293 301 271 249 246 229 224 223 229 230 243 235 232 244 255 256 250 253 267 290 288 304 303
342 349 24 24 6 356 336 330 324 317 312 289 284 270 273 281 295 292 276 268 267 291 269 11 299 242 225 217 218 224 231 234 235 238 241 240 257 254 253 265 271 273 277
25 35 17 7 357 346 334 324 320 313 299 287 283 272 269 270 279 298 292 287 261 257 256 262 264 266 288 241 229 236 227 232 234 232 236 245 257 244 243 249 268 279 278